Stündliche Wetter Kyzylagash

Heute, 10 Mai, Montag

Zeit Temperatur Niederschläge Wind Luftdruck Luftfeuchtigkeit
00:00 +18°C° 0.1 mm 8 m/S 718 mmHg 73%
01:00 +18°C° 0.1 mm 7 m/S 718 mmHg 77%
02:00 +17°C° 0.1 mm 5 m/S 718 mmHg 82%
03:00 +17°C° 0 mm 5 m/S 718 mmHg 83%
04:00 +18°C° 0 mm 4 m/S 718 mmHg 84%
05:00 +17°C° 0 mm 4 m/S 718 mmHg 86%
06:00 +19°C° 0 mm 5 m/S 718 mmHg 78%
07:00 +20°C° 0 mm 5 m/S 718 mmHg 69%
08:00 +22°C° 0 mm 5 m/S 718 mmHg 60%
09:00 +23°C° 0 mm 5 m/S 718 mmHg 52%
10:00 +24°C° 0 mm 6 m/S 718 mmHg 45%
11:00 +26°C° 0 mm 6 m/S 718 mmHg 35%
12:00 +27°C° 0 mm 6 m/S 718 mmHg 35%
13:00 +27°C° 0 mm 6 m/S 717 mmHg 36%
14:00 +27°C° 0 mm 6 m/S 717 mmHg 36%
15:00 +27°C° 0 mm 6 m/S 717 mmHg 37%
16:00 +26°C° 0 mm 6 m/S 716 mmHg 38%
17:00 +26°C° 0 mm 6 m/S 716 mmHg 40%
18:00 +23°C° 0 mm 5 m/S 717 mmHg 38%
19:00 +22°C° 0 mm 4 m/S 717 mmHg 37%
20:00 +20°C° 0 mm 4 m/S 717 mmHg 36%
21:00 +19°C° 0 mm 3 m/S 717 mmHg 38%
22:00 +18°C° 0 mm 2 m/S 717 mmHg 41%
23:00 +17°C° 0 mm 2 m/S 718 mmHg 44%

Morgen, 11 Mai, Dienstag

Zeit Temperatur Niederschläge Wind Luftdruck Luftfeuchtigkeit
00:00 +17°C° 0 mm 2 m/S 718 mmHg 45%
01:00 +17°C° 0 mm 2 m/S 717 mmHg 46%
02:00 +17°C° 0 mm 2 m/S 717 mmHg 47%
03:00 +17°C° 0 mm 2 m/S 717 mmHg 48%
04:00 +17°C° 0 mm 2 m/S 717 mmHg 49%
05:00 +16°C° 0 mm 2 m/S 717 mmHg 51%
06:00 +18°C° 0 mm 2 m/S 718 mmHg 45%
07:00 +21°C° 0 mm 1 m/S 718 mmHg 39%
08:00 +23°C° 0 mm 1 m/S 718 mmHg 33%
09:00 +23°C° 0 mm 2 m/S 718 mmHg 32%
10:00 +24°C° 0 mm 2 m/S 718 mmHg 31%
11:00 +25°C° 0 mm 3 m/S 718 mmHg 29%
12:00 +25°C° 0 mm 3 m/S 718 mmHg 28%
13:00 +26°C° 0 mm 4 m/S 718 mmHg 28%
14:00 +26°C° 0 mm 4 m/S 718 mmHg 27%
15:00 +26°C° 0 mm 4 m/S 718 mmHg 28%
16:00 +25°C° 0 mm 4 m/S 718 mmHg 29%
17:00 +25°C° 0 mm 4 m/S 719 mmHg 30%
18:00 +22°C° 0 mm 3 m/S 719 mmHg 36%
19:00 +19°C° 0 mm 3 m/S 719 mmHg 43%
20:00 +17°C° 0 mm 2 m/S 719 mmHg 50%
21:00 +16°C° 0 mm 2 m/S 719 mmHg 52%
22:00 +16°C° 0 mm 2 m/S 719 mmHg 55%
23:00 +15°C° 0 mm 2 m/S 718 mmHg 57%

übermorgen, 12 Mai, Mittwoch

Zeit Temperatur Niederschläge Wind Luftdruck Luftfeuchtigkeit
00:00 +15°C° 0.1 mm 2 m/S 719 mmHg 59%
01:00 +15°C° 0.1 mm 2 m/S 719 mmHg 62%
02:00 +15°C° 0.1 mm 2 m/S 719 mmHg 64%
03:00 +15°C° 0 mm 2 m/S 719 mmHg 67%
04:00 +15°C° 0 mm 2 m/S 719 mmHg 70%
05:00 +15°C° 0 mm 2 m/S 719 mmHg 73%
06:00 +16°C° 0.1 mm 3 m/S 720 mmHg 67%
07:00 +15°C° 0.1 mm 4 m/S 720 mmHg 61%
08:00 +16°C° 0.1 mm 5 m/S 721 mmHg 55%
09:00 +17°C° 0.1 mm 5 m/S 721 mmHg 48%
10:00 +19°C° 0.1 mm 5 m/S 721 mmHg 41%
11:00 +20°C° 0.1 mm 6 m/S 721 mmHg 35%
12:00 +20°C° 0 mm 6 m/S 721 mmHg 32%
13:00 +21°C° 0 mm 6 m/S 721 mmHg 30%
14:00 +21°C° 0 mm 7 m/S 721 mmHg 28%
15:00 +20°C° 0 mm 6 m/S 722 mmHg 27%
16:00 +20°C° 0 mm 6 m/S 722 mmHg 27%
17:00 +19°C° 0 mm 6 m/S 722 mmHg 26%
18:00 +17°C° 0 mm 5 m/S 722 mmHg 30%
19:00 +15°C° 0 mm 5 m/S 723 mmHg 34%
20:00 +14°C° 0 mm 4 m/S 723 mmHg 38%
21:00 +13°C° 0 mm 3 m/S 723 mmHg 41%
22:00 +12°C° 0 mm 3 m/S 723 mmHg 44%
23:00 +12°C° 0 mm 3 m/S 723 mmHg 48%

13 Mai, Donnerstag

Zeit Temperatur Niederschläge Wind Luftdruck Luftfeuchtigkeit
00:00 +11°C° 0 mm 3 m/S 723 mmHg 50%
01:00 +10°C° 0 mm 2 m/S 723 mmHg 52%
02:00 +10°C° 0 mm 2 m/S 722 mmHg 55%
03:00 +10°C° 0 mm 2 m/S 723 mmHg 57%
04:00 +9°C° 0 mm 2 m/S 723 mmHg 58%
05:00 +9°C° 0 mm 2 m/S 723 mmHg 60%
06:00 +12°C° 0 mm 2 m/S 723 mmHg 54%
07:00 +13°C° 0 mm 3 m/S 723 mmHg 48%
08:00 +17°C° 0 mm 4 m/S 723 mmHg 43%
09:00 +18°C° 0 mm 4 m/S 723 mmHg 39%
10:00 +19°C° 0 mm 4 m/S 722 mmHg 35%
11:00 +20°C° 0 mm 4 m/S 722 mmHg 31%
12:00 +20°C° 0 mm 4 m/S 722 mmHg 30%
13:00 +21°C° 0 mm 4 m/S 721 mmHg 28%
14:00 +21°C° 0 mm 4 m/S 721 mmHg 27%
15:00 +21°C° 0 mm 4 m/S 721 mmHg 27%
16:00 +21°C° 0 mm 4 m/S 721 mmHg 27%
17:00 +20°C° 0 mm 4 m/S 721 mmHg 28%
18:00 +19°C° 0 mm 3 m/S 721 mmHg 31%
19:00 +18°C° 0 mm 3 m/S 721 mmHg 35%
20:00 +16°C° 0 mm 3 m/S 721 mmHg 39%
21:00 +16°C° 0 mm 3 m/S 721 mmHg 47%
22:00 +14°C° 0 mm 3 m/S 721 mmHg 55%
23:00 +13°C° 0 mm 3 m/S 721 mmHg 63%

14 Mai, Freitag

Zeit Temperatur Niederschläge Wind Luftdruck Luftfeuchtigkeit
00:00 +13°C° 0.3 mm 2 m/S 721 mmHg 70%
01:00 +13°C° 0.3 mm 2 m/S 721 mmHg 77%
02:00 +12°C° 0.3 mm 1 m/S 721 mmHg 85%
03:00 +12°C° 0 mm 1 m/S 721 mmHg 83%
04:00 +12°C° 0 mm 1 m/S 721 mmHg 82%
05:00 +12°C° 0 mm 1 m/S 721 mmHg 81%
06:00 +13°C° 0.1 mm 1 m/S 721 mmHg 76%
07:00 +14°C° 0.1 mm 1 m/S 722 mmHg 72%
08:00 +15°C° 0.1 mm 1 m/S 722 mmHg 67%
09:00 +16°C° 0 mm 1 m/S 722 mmHg 62%
10:00 +17°C° 0 mm 2 m/S 722 mmHg 57%
11:00 +18°C° 0 mm 2 m/S 722 mmHg 52%
12:00 +18°C° 0 mm 2 m/S 722 mmHg 51%
13:00 +18°C° 0 mm 2 m/S 722 mmHg 50%
14:00 +18°C° 0 mm 2 m/S 722 mmHg 49%
15:00 +19°C° 0 mm 2 m/S 722 mmHg 48%
16:00 +19°C° 0 mm 3 m/S 722 mmHg 47%
17:00 +20°C° 0 mm 3 m/S 722 mmHg 46%
18:00 +18°C° 0 mm 3 m/S 722 mmHg 51%
19:00 +17°C° 0 mm 2 m/S 723 mmHg 56%
20:00 +15°C° 0 mm 2 m/S 723 mmHg 61%
21:00 +15°C° 0 mm 2 m/S 723 mmHg 63%
22:00 +14°C° 0 mm 2 m/S 723 mmHg 65%
23:00 +12°C° 0 mm 3 m/S 723 mmHg 67%

15 Mai, Samstag

Zeit Temperatur Niederschläge Wind Luftdruck Luftfeuchtigkeit
00:00 +12°C° 0 mm 3 m/S 722 mmHg 67%
01:00 +12°C° 0 mm 3 m/S 722 mmHg 68%
02:00 +11°C° 0 mm 3 m/S 722 mmHg 68%
03:00 +11°C° 0 mm 3 m/S 722 mmHg 68%
04:00 +12°C° 0 mm 2 m/S 722 mmHg 68%
05:00 +12°C° 0 mm 2 m/S 721 mmHg 68%
06:00 +13°C° 0 mm 3 m/S 722 mmHg 61%
07:00 +16°C° 0 mm 3 m/S 722 mmHg 55%
08:00 +18°C° 0 mm 3 m/S 722 mmHg 48%
09:00 +20°C° 0 mm 4 m/S 721 mmHg 45%
10:00 +21°C° 0 mm 4 m/S 721 mmHg 42%
11:00 +23°C° 0 mm 4 m/S 721 mmHg 39%
12:00 +23°C° 0 mm 4 m/S 721 mmHg 37%
13:00 +25°C° 0 mm 5 m/S 720 mmHg 36%
14:00 +25°C° 0 mm 5 m/S 720 mmHg 34%
15:00 +25°C° 0 mm 4 m/S 720 mmHg 34%
16:00 +25°C° 0 mm 3 m/S 720 mmHg 34%
17:00 +24°C° 0 mm 3 m/S 719 mmHg 35%
18:00 +21°C° 0 mm 3 m/S 719 mmHg 39%
19:00 +20°C° 0 mm 3 m/S 719 mmHg 43%
20:00 +18°C° 0 mm 3 m/S 719 mmHg 47%
21:00 +18°C° 0 mm 2 m/S 719 mmHg 48%
22:00 +17°C° 0 mm 2 m/S 719 mmHg 49%
23:00 +18°C° 0 mm 1 m/S 718 mmHg 49%
Mehr zeigen

Wir brauchen deine Erlaubnis

Meteoprog und unser Service Anbieter werden persönliche Daten aufbewahren, so wie Cookies, Geräte Bezeichnung oder ähnliche Technologien von deinem Gerät und Prozess, so wie Persönliche Daten Inhalte und Werbungen, genauso wie social Media und den Verkehr zu analysieren.

  • Aufbewahrung und/oder Zugang zu deiner Geräte Informationen.

    Cookies, Geräte Bezeichnung oder andere Informationen, können aufbewahrt oder Zugang zu deinem Gerät erhalten, für den Grund, der oben angegeben wird.

  • Personalisierte Werbung und Inhalte, Messungen, Einblick in das Publikum und Produkt Entwicklung.

    Werbungen und Inhalte können personalisiert werden, basierend auf ein Profil. Mehr Daten können besser personalisierte Werbungen und Inhalte hinzufügen. Werbung und Inhalte können gezeigt und gemessen werden. Einblicke über das Publikum, welche die Werbung gesehen haben und den Inhalt, können abgeleitet werden. So wie Daten können genutzt werden, um es zu verbessern oder die Benutzer Erfahrung zu verbessern das System und die Software.

Wenn du “Ich stimme zu” klickst, erlaubst du uns, die Cookies zu benutzen die Geräte Bezeichnung, den Web oder ähnliche Technologien zu benutzen. Deine Settings, können in deinem Gerät bei deinem Browser geändert werden.

Für den bestimmten Zweck, berechtigten Interessen beruhen darauf, mehr als auf den Inhalt. Du kannst mehr darüber in unseren Privaten und Cookie Politik lesen.